Location: Prague
(50.0830°N, 14.4670°E)
Time: 04:24:58
(UTC+02:00)

FO-29 - Pass Details

Date: 09 April 2023
Orbit: 799 x 1322 km, 98.5° (Epoch: 29 May)

Event Time Altitude Azimuth Distance (km) Brightness Sun altitude
Rises 05:35:10 0° 16° (NNE) 4,212 13.4 -8.1°
Reaches altitude 10° 05:38:03 10° 21° (NNE) 3,183 12.8 -7.7°
Maximum altitude 05:45:11 54° 98° (E) 1,343 10.7 -6.6°
Drops below altitude 10° 05:51:27 10° 175° (S) 2,812 11.8 -5.6°
Sets 05:53:52 0° 180° (S) 3,687 12.3 -5.3°
